Time,TemperatureF,DewpointF,PressureIn,WindDirection,WindDirectionDegrees,WindSpeedMPH,WindSpeedGustMPH,Humidity,HourlyPrecipIn,Conditions,Clouds,dailyrainin,SoftwareType,DateUTC
2013-03-28 00:04:00,56.8,50.4,29.91,East,94,0.0,0.0,79,0.00,,---,0.00,VWS V14.01,2013-03-28 07:04:00,
2013-03-28 00:09:00,56.7,50.6,29.91,East,94,0.0,0.0,80,0.00,,---,0.00,VWS V14.01,2013-03-28 07:09:00,
2013-03-28 00:14:00,56.6,50.5,29.91,East,94,0.0,0.0,80,0.00,,---,0.00,VWS V14.01,2013-03-28 07:14:00,
2013-03-28 00:19:00,56.6,50.5,29.91,East,94,0.0,0.0,80,0.00,,---,0.00,VWS V14.01,2013-03-28 07:19:00,
2013-03-28 00:24:00,56.5,50.8,29.91,East,94,0.0,0.0,81,0.00,,---,0.00,VWS V14.01,2013-03-28 07:24:00,
2013-03-28 00:29:00,56.5,50.8,29.91,East,94,0.0,0.0,81,0.00,,---,0.00,VWS V14.01,2013-03-28 07:29:00,
2013-03-28 00:35:00,56.5,51.1,29.91,NNW,348,0.0,0.0,82,0.00,,---,0.00,VWS V14.01,2013-03-28 07:35:00,
2013-03-28 00:40:00,56.5,51.1,29.91,South,175,0.0,0.0,82,0.00,,---,0.00,VWS V14.01,2013-03-28 07:40:00,
2013-03-28 00:45:00,56.5,51.1,29.91,WNW,288,2.0,0.0,82,0.00,,---,0.00,VWS V14.01,2013-03-28 07:45:00,
2013-03-28 00:50:00,56.4,51.0,29.91,NW,316,0.0,0.0,82,0.00,,---,0.00,VWS V14.01,2013-03-28 07:50:00,
2013-03-28 00:55:00,56.3,50.5,29.91,West,275,0.0,0.0,81,0.00,,---,0.00,VWS V14.01,2013-03-28 07:55:00,
2013-03-28 01:00:00,56.2,50.5,29.91,WNW,296,0.0,0.0,81,0.00,,---,0.00,VWS V14.01,2013-03-28 08:00:00,
2013-03-28 01:05:00,56.1,50.7,29.91,NNW,327,0.0,0.0,82,0.00,,---,0.00,VWS V14.01,2013-03-28 08:05:00,
2013-03-28 01:10:00,56.0,50.3,29.91,NW,325,0.0,0.0,81,0.00,,---,0.00,VWS V14.01,2013-03-28 08:10:00,
2013-03-28 01:15:00,55.9,50.5,29.91,NW,326,0.0,0.0,82,0.00,,---,0.00,VWS V14.01,2013-03-28 08:15:00,
2013-03-28 01:20:00,55.8,50.4,29.91,NW,326,0.0,0.0,82,0.00,,---,0.00,VWS V14.01,2013-03-28 08:20:00,
2013-03-28 01:25:00,55.7,50.6,29.91,NW,326,0.0,0.0,83,0.00,,---,0.00,VWS V14.01,2013-03-28 08:25:00,
2013-03-28 01:30:00,55.6,50.5,29.91,NW,326,0.0,0.0,83,0.00,,---,0.00,VWS V14.01,2013-03-28 08:30:00,
2013-03-28 01:35:00,55.6,50.5,29.91,North,5,0.0,0.0,83,0.00,,---,0.00,VWS V14.01,2013-03-28 08:35:00,
2013-03-28 01:40:00,55.5,50.4,29.91,North,9,0.0,0.0,83,0.00,,---,0.00,VWS V14.01,2013-03-28 08:40:00,
2013-03-28 01:45:00,55.5,50.4,29.91,North,5,0.0,0.0,83,0.00,,---,0.00,VWS V14.01,2013-03-28 08:45:00,
2013-03-28 01:50:00,55.5,50.8,29.91,North,5,0.0,0.0,84,0.00,,---,0.00,VWS V14.01,2013-03-28 08:50:00,
2013-03-28 01:56:00,55.5,50.8,29.91,North,5,0.0,0.0,84,0.00,,---,0.00,VWS V14.01,2013-03-28 08:56:00,
2013-03-28 02:01:00,55.5,50.4,29.91,North,5,0.0,0.0,83,0.00,,---,0.00,VWS V14.01,2013-03-28 09:01:00,
2013-03-28 02:06:00,55.5,50.4,29.91,North,5,0.0,0.0,83,0.00,,---,0.00,VWS V14.01,2013-03-28 09:06:00,
2013-03-28 02:11:00,55.5,50.4,29.91,North,5,0.0,0.0,83,0.00,,---,0.00,VWS V14.01,2013-03-28 09:11:00,
2013-03-28 02:16:00,55.5,50.1,29.91,North,9,0.0,0.0,82,0.00,,---,0.00,VWS V14.01,2013-03-28 09:16:00,
2013-03-28 02:21:00,55.5,50.4,29.91,North,5,0.0,0.0,83,0.00,,---,0.00,VWS V14.01,2013-03-28 09:21:00,
2013-03-28 02:27:00,55.5,50.4,29.91,NNW,333,0.0,0.0,83,0.00,,---,0.00,VWS V14.01,2013-03-28 09:27:00,
2013-03-28 02:32:00,55.5,50.4,29.91,NNW,333,0.0,0.0,83,0.00,,---,0.00,VWS V14.01,2013-03-28 09:32:00,
2013-03-28 02:37:00,55.5,50.4,29.91,NNW,333,0.0,0.0,83,0.00,,---,0.00,VWS V14.01,2013-03-28 09:37:00,
2013-03-28 02:42:00,55.4,50.3,29.91,NNW,338,0.0,0.0,83,0.00,,---,0.00,VWS V14.01,2013-03-28 09:42:00,
2013-03-28 02:47:00,55.4,50.0,29.91,NNE,14,0.0,0.0,82,0.00,,---,0.00,VWS V14.01,2013-03-28 09:47:00,
2013-03-28 02:52:00,55.3,49.9,29.91,NNE,14,0.0,0.0,82,0.00,,---,0.00,VWS V14.01,2013-03-28 09:52:00,
2013-03-28 02:57:00,55.2,49.8,29.91,North,355,0.0,0.0,82,0.00,,---,0.00,VWS V14.01,2013-03-28 09:57:00,
2013-03-28 03:02:00,55.1,49.7,29.91,ENE,66,0.0,0.0,82,0.00,,---,0.00,VWS V14.01,2013-03-28 10:02:00,
2013-03-28 03:07:00,55.0,49.9,29.91,WNW,295,0.0,0.0,83,0.00,,---,0.00,VWS V14.01,2013-03-28 10:07:00,
2013-03-28 03:12:00,55.0,49.6,29.91,WNW,296,0.0,0.0,82,0.00,,---,0.00,VWS V14.01,2013-03-28 10:12:00,
2013-03-28 03:17:00,54.9,49.5,29.91,WNW,296,0.0,0.0,82,0.00,,---,0.00,VWS V14.01,2013-03-28 10:17:00,
2013-03-28 03:22:00,54.9,49.5,29.91,WNW,296,0.0,0.0,82,0.00,,---,0.00,VWS V14.01,2013-03-28 10:22:00,
2013-03-28 03:28:00,54.9,49.5,29.91,WNW,290,0.0,0.0,82,0.00,,---,0.00,VWS V14.01,2013-03-28 10:28:00,
2013-03-28 03:33:00,54.9,49.5,29.91,WNW,290,0.0,0.0,82,0.00,,---,0.00,VWS V14.01,2013-03-28 10:33:00,
2013-03-28 03:38:00,54.8,49.4,29.91,WNW,291,0.0,0.0,82,0.00,,---,0.00,VWS V14.01,2013-03-28 10:38:00,
2013-03-28 03:43:00,54.8,49.4,29.91,SSW,211,0.0,0.0,82,0.00,,---,0.00,VWS V14.01,2013-03-28 10:43:00,
2013-03-28 03:48:00,54.7,49.3,29.91,SSW,211,0.0,0.0,82,0.00,,---,0.00,VWS V14.01,2013-03-28 10:48:00,
2013-03-28 03:53:00,54.7,49.3,29.91,SSW,211,0.0,0.0,82,0.00,,---,0.00,VWS V14.01,2013-03-28 10:53:00,
2013-03-28 03:58:00,54.6,49.5,29.91,SSW,211,0.0,0.0,83,0.00,,---,0.00,VWS V14.01,2013-03-28 10:58:00,
2013-03-28 04:03:00,54.6,49.2,29.91,SSW,211,0.0,0.0,82,0.00,,---,0.00,VWS V14.01,2013-03-28 11:03:00,
2013-03-28 04:08:00,54.6,49.2,29.91,SSW,211,0.0,0.0,82,0.00,,---,0.00,VWS V14.01,2013-03-28 11:08:00,
2013-03-28 04:13:00,54.6,49.2,29.91,SSW,211,0.0,0.0,82,0.00,,---,0.00,VWS V14.01,2013-03-28 11:13:00,
2013-03-28 04:18:00,54.5,49.1,29.91,SSW,211,0.0,0.0,82,0.00,,---,0.00,VWS V14.01,2013-03-28 11:18:00,
2013-03-28 04:23:00,54.5,49.5,29.91,SSW,211,0.0,0.0,83,0.00,,---,0.00,VWS V14.01,2013-03-28 11:23:00,
2013-03-28 04:28:00,54.5,49.5,29.91,SSW,211,0.0,0.0,83,0.00,,---,0.00,VWS V14.01,2013-03-28 11:28:00,
2013-03-28 04:33:00,54.5,49.5,29.92,WNW,290,0.0,0.0,83,0.00,,---,0.00,VWS V14.01,2013-03-28 11:33:00,
2013-03-28 04:38:00,54.5,49.5,29.92,WNW,290,0.0,0.0,83,0.00,,---,0.00,VWS V14.01,2013-03-28 11:38:00,
2013-03-28 04:44:00,54.5,49.5,29.92,WNW,290,0.0,0.0,83,0.00,,---,0.00,VWS V14.01,2013-03-28 11:44:00,
2013-03-28 04:49:00,54.4,49.3,29.92,WNW,290,0.0,0.0,83,0.00,,---,0.00,VWS V14.01,2013-03-28 11:49:00,
2013-03-28 04:54:00,54.4,49.3,29.92,WNW,290,0.0,0.0,83,0.00,,---,0.00,VWS V14.01,2013-03-28 11:54:00,
2013-03-28 04:59:00,54.3,49.3,29.92,WNW,290,0.0,0.0,83,0.00,,---,0.00,VWS V14.01,2013-03-28 11:59:00,
2013-03-28 05:04:00,54.3,49.6,29.92,WNW,290,0.0,0.0,84,0.00,,---,0.00,VWS V14.01,2013-03-28 12:04:00,
2013-03-28 05:09:00,54.2,49.5,29.92,WNW,290,0.0,0.0,84,0.00,,---,0.00,VWS V14.01,2013-03-28 12:09:00,
2013-03-28 05:14:00,54.2,49.2,29.92,WNW,290,0.0,0.0,83,0.00,,---,0.00,VWS V14.01,2013-03-28 12:14:00,
2013-03-28 05:19:00,54.2,49.5,29.92,WNW,290,0.0,0.0,84,0.00,,---,0.00,VWS V14.01,2013-03-28 12:19:00,
2013-03-28 05:24:00,54.1,49.4,29.92,WNW,290,0.0,0.0,84,0.00,,---,0.00,VWS V14.01,2013-03-28 12:24:00,
2013-03-28 05:29:00,54.1,49.4,29.92,WNW,290,0.0,0.0,84,0.00,,---,0.00,VWS V14.01,2013-03-28 12:29:00,
2013-03-28 05:34:00,54.0,49.3,29.92,WNW,290,0.0,0.0,84,0.00,,---,0.00,VWS V14.01,2013-03-28 12:34:00,
2013-03-28 05:39:00,53.9,49.2,29.92,WNW,290,0.0,0.0,84,0.00,,---,0.00,VWS V14.01,2013-03-28 12:39:00,
2013-03-28 05:44:00,53.9,49.2,29.92,WNW,290,0.0,0.0,84,0.00,,---,0.00,VWS V14.01,2013-03-28 12:44:00,
2013-03-28 05:49:00,53.9,49.2,29.92,WNW,291,0.0,0.0,84,0.00,,---,0.00,VWS V14.01,2013-03-28 12:49:00,
2013-03-28 05:54:00,53.8,48.8,29.92,WNW,290,0.0,0.0,83,0.00,,---,0.00,VWS V14.01,2013-03-28 12:54:00,
2013-03-28 05:59:00,53.8,48.8,29.92,WNW,290,0.0,0.0,83,0.00,,---,0.00,VWS V14.01,2013-03-28 12:59:00,
2013-03-28 06:04:00,53.8,48.8,29.92,WNW,290,0.0,0.0,83,0.00,,---,0.00,VWS V14.01,2013-03-28 13:04:00,
2013-03-28 06:09:00,53.8,49.1,29.92,WNW,290,0.0,0.0,84,0.00,,---,0.00,VWS V14.01,2013-03-28 13:09:00,
2013-03-28 06:14:00,53.9,49.2,29.92,WNW,290,0.0,0.0,84,0.00,,---,0.00,VWS V14.01,2013-03-28 13:14:00,
2013-03-28 06:19:00,53.9,49.2,29.92,WNW,290,0.0,0.0,84,0.00,,---,0.00,VWS V14.01,2013-03-28 13:19:00,
2013-03-28 06:24:00,53.9,49.2,29.92,WNW,290,0.0,0.0,84,0.00,,---,0.00,VWS V14.01,2013-03-28 13:24:00,
2013-03-28 06:30:00,53.9,49.2,29.92,WNW,290,0.0,0.0,84,0.00,,---,0.00,VWS V14.01,2013-03-28 13:30:00,
2013-03-28 06:35:00,54.1,49.7,29.92,WNW,290,0.0,0.0,85,0.00,,---,0.00,VWS V14.01,2013-03-28 13:35:00,
2013-03-28 06:40:00,54.1,49.7,29.93,WNW,290,0.0,0.0,85,0.00,,---,0.00,VWS V14.01,2013-03-28 13:40:00,
2013-03-28 06:45:00,54.1,49.7,29.93,WNW,290,0.0,0.0,85,0.00,,---,0.00,VWS V14.01,2013-03-28 13:45:00,
2013-03-28 06:50:00,54.1,49.7,29.93,WNW,290,0.0,0.0,85,0.00,,---,0.00,VWS V14.01,2013-03-28 13:50:00,
2013-03-28 06:55:00,54.1,49.7,29.93,WNW,290,0.0,0.0,85,0.00,,---,0.00,VWS V14.01,2013-03-28 13:55:00,
2013-03-28 07:00:00,54.1,49.7,29.93,WNW,290,0.0,0.0,85,0.00,,---,0.00,VWS V14.01,2013-03-28 14:00:00,
2013-03-28 07:05:00,54.0,49.6,29.93,WNW,290,0.0,0.0,85,0.00,,---,0.00,VWS V14.01,2013-03-28 14:05:00,
2013-03-28 07:10:00,54.0,49.6,29.93,WNW,290,0.0,0.0,85,0.00,,---,0.00,VWS V14.01,2013-03-28 14:10:00,
2013-03-28 07:15:00,54.0,49.6,29.93,WNW,290,0.0,0.0,85,0.00,,---,0.00,VWS V14.01,2013-03-28 14:15:00,
2013-03-28 07:20:00,53.9,49.5,29.93,WNW,290,0.0,0.0,85,0.00,,---,0.00,VWS V14.01,2013-03-28 14:20:00,
2013-03-28 07:25:00,53.9,49.5,29.93,WNW,290,0.0,0.0,85,0.00,,---,0.00,VWS V14.01,2013-03-28 14:25:00,
2013-03-28 07:30:00,54.0,49.9,29.93,WNW,290,0.0,0.0,86,0.00,,---,0.00,VWS V14.01,2013-03-28 14:30:00,
2013-03-28 07:36:00,54.1,50.0,29.93,WNW,290,0.0,0.0,86,0.00,,---,0.00,VWS V14.01,2013-03-28 14:36:00,
2013-03-28 07:41:00,54.1,50.0,29.93,WNW,290,0.0,0.0,86,0.00,,---,0.00,VWS V14.01,2013-03-28 14:41:00,
2013-03-28 07:46:00,54.2,49.8,29.93,WNW,290,0.0,0.0,85,0.00,,---,0.00,VWS V14.01,2013-03-28 14:46:00,
2013-03-28 07:51:00,54.3,49.9,29.94,WNW,290,0.0,0.0,85,0.00,,---,0.00,VWS V14.01,2013-03-28 14:51:00,
2013-03-28 07:56:00,54.4,49.3,29.94,WNW,290,0.0,0.0,83,0.00,,---,0.00,VWS V14.01,2013-03-28 14:56:00,
2013-03-28 08:01:00,54.6,49.9,29.94,WNW,290,0.0,0.0,84,0.00,,---,0.00,VWS V14.01,2013-03-28 15:01:00,
2013-03-28 08:06:00,54.7,49.7,29.94,WNW,290,0.0,0.0,83,0.00,,---,0.00,VWS V14.01,2013-03-28 15:06:00,
2013-03-28 08:11:00,54.8,50.1,29.94,WNW,290,0.0,0.0,84,0.00,,---,0.00,VWS V14.01,2013-03-28 15:11:00,
2013-03-28 08:16:00,54.9,49.5,29.94,WNW,290,0.0,0.0,82,0.00,,---,0.00,VWS V14.01,2013-03-28 15:16:00,
2013-03-28 08:22:00,54.9,49.2,29.94,WNW,290,0.0,0.0,81,0.00,,---,0.00,VWS V14.01,2013-03-28 15:22:00,
2013-03-28 08:27:00,55.0,49.3,29.94,WNW,290,0.0,0.0,81,0.00,,---,0.00,VWS V14.01,2013-03-28 15:27:00,
2013-03-28 08:32:00,55.2,49.2,29.94,WNW,290,0.0,0.0,80,0.00,,---,0.00,VWS V14.01,2013-03-28 15:32:00,
2013-03-28 08:37:00,55.4,49.0,29.94,WNW,290,0.0,0.0,79,0.00,,---,0.00,VWS V14.01,2013-03-28 15:37:00,
2013-03-28 08:42:00,55.6,49.5,29.95,WNW,290,0.0,0.0,80,0.00,,---,0.00,VWS V14.01,2013-03-28 15:42:00,
2013-03-28 08:47:00,55.8,49.7,29.95,WNW,290,0.0,0.0,80,0.00,,---,0.00,VWS V14.01,2013-03-28 15:47:00,
2013-03-28 08:52:00,56.0,49.6,29.95,WNW,290,0.0,0.0,79,0.00,,---,0.00,VWS V14.01,2013-03-28 15:52:00,
2013-03-28 08:57:00,56.2,49.8,29.95,WNW,290,0.0,0.0,79,0.00,,---,0.00,VWS V14.01,2013-03-28 15:57:00,
2013-03-28 09:02:00,56.5,50.1,29.96,WNW,290,0.0,0.0,79,0.00,,---,0.00,VWS V14.01,2013-03-28 16:02:00,
2013-03-28 09:08:00,56.7,50.3,29.96,WNW,290,0.0,0.0,79,0.00,,---,0.00,VWS V14.01,2013-03-28 16:08:00,
2013-03-28 09:13:00,57.0,50.2,29.96,WNW,290,0.0,0.0,78,0.00,,---,0.00,VWS V14.01,2013-03-28 16:13:00,
2013-03-28 09:18:00,57.2,49.7,29.96,WNW,290,0.0,0.0,76,0.00,,---,0.00,VWS V14.01,2013-03-28 16:18:00,
2013-03-28 09:23:00,57.4,49.9,29.96,WNW,290,0.0,0.0,76,0.00,,---,0.00,VWS V14.01,2013-03-28 16:23:00,
2013-03-28 09:28:00,57.6,50.1,29.97,WNW,290,0.0,0.0,76,0.00,,---,0.00,VWS V14.01,2013-03-28 16:28:00,
2013-03-28 09:33:00,57.8,50.7,29.97,WNW,290,0.0,0.0,77,0.00,,---,0.00,VWS V14.01,2013-03-28 16:33:00,
2013-03-28 09:38:00,58.1,49.9,29.97,WNW,290,0.0,0.0,74,0.00,,---,0.00,VWS V14.01,2013-03-28 16:38:00,
2013-03-28 09:43:00,58.4,49.4,29.97,WNW,290,0.0,0.0,72,0.00,,---,0.00,VWS V14.01,2013-03-28 16:43:00,
2013-03-28 09:48:00,58.7,49.3,29.97,WNW,290,0.0,0.0,71,0.00,,---,0.00,VWS V14.01,2013-03-28 16:48:00,
2013-03-28 09:53:00,58.9,49.5,29.97,WNW,290,0.0,0.0,71,0.00,,---,0.00,VWS V14.01,2013-03-28 16:53:00,
2013-03-28 09:58:00,59.2,49.8,29.97,WNW,290,0.0,0.0,71,0.00,,---,0.00,VWS V14.01,2013-03-28 16:58:00,
2013-03-28 10:03:00,59.4,50.0,29.98,WNW,290,0.0,0.0,71,0.00,,---,0.00,VWS V14.01,2013-03-28 17:03:00,
2013-03-28 10:08:00,59.8,50.4,29.98,WNW,290,0.0,0.0,71,0.00,,---,0.00,VWS V14.01,2013-03-28 17:08:00,
2013-03-28 10:13:00,60.1,50.7,29.98,WNW,290,1.0,0.0,71,0.00,,---,0.00,VWS V14.01,2013-03-28 17:13:00,
2013-03-28 10:18:00,60.4,50.2,29.98,WNW,290,0.0,0.0,69,0.00,,---,0.00,VWS V14.01,2013-03-28 17:18:00,
2013-03-28 10:23:00,60.6,48.8,29.98,WNW,290,0.0,0.0,65,0.00,,---,0.00,VWS V14.01,2013-03-28 17:23:00,
2013-03-28 10:28:00,60.7,50.1,29.98,West,259,0.0,0.0,68,0.00,,---,0.00,VWS V14.01,2013-03-28 17:28:00,
2013-03-28 10:33:00,60.9,49.5,29.98,NNE,29,0.0,0.0,66,0.00,,---,0.00,VWS V14.01,2013-03-28 17:33:00,
2013-03-28 10:39:00,61.1,48.8,29.98,NNE,19,1.0,0.0,64,0.00,,---,0.00,VWS V14.01,2013-03-28 17:39:00,
2013-03-28 10:44:00,61.4,50.0,29.98,North,360,1.0,0.0,66,0.00,,---,0.00,VWS V14.01,2013-03-28 17:44:00,
2013-03-28 10:49:00,61.8,50.3,29.98,NNE,22,0.0,0.0,66,0.00,,---,0.00,VWS V14.01,2013-03-28 17:49:00,
2013-03-28 10:54:00,62.1,50.6,29.98,NW,313,0.0,0.0,66,0.00,,---,0.00,VWS V14.01,2013-03-28 17:54:00,
2013-03-28 10:59:00,62.1,50.6,29.99,NNE,25,0.0,0.0,66,0.00,,---,0.00,VWS V14.01,2013-03-28 17:59:00,
2013-03-28 11:04:00,62.4,51.3,29.99,NNE,32,0.0,0.0,67,0.00,,---,0.00,VWS V14.01,2013-03-28 18:04:00,
2013-03-28 11:09:00,62.8,50.0,29.99,North,5,0.0,0.0,63,0.00,,---,0.00,VWS V14.01,2013-03-28 18:09:00,
2013-03-28 11:14:00,63.0,50.2,29.99,NNE,13,0.0,0.0,63,0.00,,---,0.00,VWS V14.01,2013-03-28 18:14:00,
2013-03-28 11:19:00,62.8,49.6,29.99,WSW,255,0.0,0.0,62,0.00,,---,0.00,VWS V14.01,2013-03-28 18:19:00,
2013-03-28 11:24:00,62.8,49.6,29.99,ENE,66,0.0,0.0,62,0.00,,---,0.00,VWS V14.01,2013-03-28 18:24:00,
2013-03-28 11:29:00,63.2,50.8,29.98,East,82,0.0,0.0,64,0.00,,---,0.00,VWS V14.01,2013-03-28 18:29:00,
2013-03-28 11:34:00,63.7,50.5,29.99,WSW,245,0.0,0.0,62,0.00,,---,0.00,VWS V14.01,2013-03-28 18:34:00,
2013-03-28 11:39:00,64.2,51.4,29.98,WSW,239,3.0,0.0,63,0.00,,---,0.00,VWS V14.01,2013-03-28 18:39:00,
2013-03-28 11:44:00,64.6,51.3,29.98,NE,42,1.0,0.0,62,0.00,,---,0.00,VWS V14.01,2013-03-28 18:44:00,
2013-03-28 11:49:00,65.1,50.4,29.98,ESE,108,0.0,0.0,59,0.00,,---,0.00,VWS V14.01,2013-03-28 18:49:00,
2013-03-28 11:54:00,65.3,51.1,29.98,NW,326,0.0,0.0,60,0.00,,---,0.00,VWS V14.01,2013-03-28 18:54:00,
2013-03-28 12:00:00,65.8,51.1,29.98,NNW,338,0.0,0.0,59,0.00,,---,0.00,VWS V14.01,2013-03-28 19:00:00,
2013-03-28 12:05:00,65.6,50.4,29.98,West,275,2.0,0.0,58,0.00,,---,0.00,VWS V14.01,2013-03-28 19:05:00,
2013-03-28 12:10:00,65.3,50.2,29.98,ESE,119,0.0,0.0,58,0.00,,---,0.00,VWS V14.01,2013-03-28 19:10:00,
2013-03-28 12:15:00,65.0,50.3,29.98,East,101,0.0,0.0,59,0.00,,---,0.00,VWS V14.01,2013-03-28 19:15:00,
2013-03-28 12:20:00,64.6,50.4,29.98,ENE,61,0.0,0.0,60,0.00,,---,0.00,VWS V14.01,2013-03-28 19:20:00,
2013-03-28 12:25:00,64.9,51.2,29.98,ENE,57,0.0,0.0,61,0.00,,---,0.00,VWS V14.01,2013-03-28 19:25:00,
2013-03-28 12:30:00,64.8,50.6,29.97,ENE,63,0.0,0.0,60,0.00,,---,0.00,VWS V14.01,2013-03-28 19:30:00,
2013-03-28 12:35:00,64.9,51.2,29.97,WSW,240,1.0,0.0,61,0.00,,---,0.00,VWS V14.01,2013-03-28 19:35:00,
2013-03-28 12:40:00,64.8,50.6,29.97,North,350,0.0,0.0,60,0.00,,---,0.00,VWS V14.01,2013-03-28 19:40:00,
2013-03-28 12:45:00,64.8,51.5,29.97,North,10,0.0,0.0,62,0.00,,---,0.00,VWS V14.01,2013-03-28 19:45:00,
2013-03-28 12:50:00,64.7,50.1,29.97,SW,230,0.0,0.0,59,0.00,,---,0.00,VWS V14.01,2013-03-28 19:50:00,
2013-03-28 12:55:00,64.7,50.5,29.97,North,355,0.0,0.0,60,0.00,,---,0.00,VWS V14.01,2013-03-28 19:55:00,
2013-03-28 13:00:00,64.9,51.2,29.97,NE,49,0.0,0.0,61,0.00,,---,0.00,VWS V14.01,2013-03-28 20:00:00,
2013-03-28 13:05:00,64.9,50.7,29.97,East,91,1.0,0.0,60,0.00,,---,0.00,VWS V14.01,2013-03-28 20:05:00,
2013-03-28 13:10:00,65.0,50.8,29.96,NE,56,0.0,0.0,60,0.00,,---,0.00,VWS V14.01,2013-03-28 20:10:00,
2013-03-28 13:16:00,65.1,50.4,29.96,NE,56,1.0,0.0,59,0.00,,---,0.00,VWS V14.01,2013-03-28 20:16:00,
2013-03-28 13:21:00,65.1,51.3,29.96,East,92,0.0,0.0,61,0.00,,---,0.00,VWS V14.01,2013-03-28 20:21:00,
2013-03-28 13:26:00,65.1,50.9,29.96,East,92,0.0,0.0,60,0.00,,---,0.00,VWS V14.01,2013-03-28 20:26:00,
2013-03-28 13:31:00,65.4,51.6,29.96,NNE,33,0.0,0.0,61,0.00,,---,0.00,VWS V14.01,2013-03-28 20:31:00,
2013-03-28 13:36:00,65.8,51.1,29.96,NE,54,1.0,0.0,59,0.00,,---,0.00,VWS V14.01,2013-03-28 20:36:00,
2013-03-28 13:41:00,66.1,50.9,29.96,NE,46,2.0,0.0,58,0.00,,---,0.00,VWS V14.01,2013-03-28 20:41:00,
2013-03-28 13:46:00,66.1,51.4,29.96,NNE,24,0.0,0.0,59,0.00,,---,0.00,VWS V14.01,2013-03-28 20:46:00,
2013-03-28 13:51:00,66.5,51.8,29.96,NE,46,2.0,0.0,59,0.00,,---,0.00,VWS V14.01,2013-03-28 20:51:00,
2013-03-28 13:56:00,66.5,50.8,29.96,East,86,1.0,0.0,57,0.00,,---,0.00,VWS V14.01,2013-03-28 20:56:00,
2013-03-28 14:01:00,66.2,51.0,29.96,South,180,0.0,0.0,58,0.00,,---,0.00,VWS V14.01,2013-03-28 21:01:00,
2013-03-28 14:06:00,66.3,51.6,29.96,NE,51,1.0,0.0,59,0.00,,---,0.00,VWS V14.01,2013-03-28 21:06:00,
2013-03-28 14:12:00,66.4,51.2,29.96,NNE,23,0.0,0.0,58,0.00,,---,0.00,VWS V14.01,2013-03-28 21:12:00,
2013-03-28 14:17:00,66.7,51.0,29.96,WNW,302,0.0,0.0,57,0.00,,---,0.00,VWS V14.01,2013-03-28 21:17:00,
2013-03-28 14:22:00,66.6,51.4,29.96,ENE,65,1.0,0.0,58,0.00,,---,0.00,VWS V14.01,2013-03-28 21:22:00,
2013-03-28 14:27:00,66.2,51.0,29.96,ENE,67,2.0,0.0,58,0.00,,---,0.00,VWS V14.01,2013-03-28 21:27:00,
2013-03-28 14:32:00,65.7,51.0,29.96,NE,51,2.0,0.0,59,0.00,,---,0.00,VWS V14.01,2013-03-28 21:32:00,
2013-03-28 14:37:00,65.4,51.2,29.96,North,355,0.0,0.0,60,0.00,,---,0.00,VWS V14.01,2013-03-28 21:37:00,
2013-03-28 14:42:00,65.4,50.7,29.96,ENE,67,1.0,0.0,59,0.00,,---,0.00,VWS V14.01,2013-03-28 21:42:00,
2013-03-28 14:47:00,65.6,51.4,29.96,NE,34,1.0,0.0,60,0.00,,---,0.00,VWS V14.01,2013-03-28 21:47:00,
2013-03-28 14:52:00,65.8,52.0,29.96,ENE,71,2.0,0.0,61,0.00,,---,0.00,VWS V14.01,2013-03-28 21:52:00,
2013-03-28 14:57:00,65.7,51.9,29.95,East,79,2.0,0.0,61,0.00,,---,0.00,VWS V14.01,2013-03-28 21:57:00,
2013-03-28 15:02:00,65.3,51.5,29.95,NE,55,2.0,0.0,61,0.00,,---,0.00,VWS V14.01,2013-03-28 22:02:00,
2013-03-28 15:07:00,65.0,51.7,29.95,NNE,12,0.0,0.0,62,0.00,,---,0.00,VWS V14.01,2013-03-28 22:07:00,
2013-03-28 15:12:00,65.0,52.1,29.95,NE,51,2.0,0.0,63,0.00,,---,0.00,VWS V14.01,2013-03-28 22:12:00,
2013-03-28 15:17:00,65.0,52.1,29.95,ENE,65,1.0,0.0,63,0.00,,---,0.00,VWS V14.01,2013-03-28 22:17:00,
2013-03-28 15:23:00,64.9,52.0,29.95,ENE,57,0.0,0.0,63,0.00,,---,0.00,VWS V14.01,2013-03-28 22:23:00,
2013-03-28 15:28:00,65.1,52.2,29.95,East,94,1.0,0.0,63,0.00,,---,0.00,VWS V14.01,2013-03-28 22:28:00,
2013-03-28 15:33:00,65.0,51.2,29.95,ESE,105,2.0,0.0,61,0.00,,---,0.00,VWS V14.01,2013-03-28 22:33:00,
2013-03-28 15:38:00,65.0,52.1,29.95,East,101,1.0,0.0,63,0.00,,---,0.00,VWS V14.01,2013-03-28 22:38:00,
2013-03-28 15:43:00,65.3,52.4,29.94,East,100,1.0,0.0,63,0.00,,---,0.00,VWS V14.01,2013-03-28 22:43:00,
2013-03-28 15:48:00,65.6,52.2,29.94,East,81,3.0,0.0,62,0.00,,---,0.00,VWS V14.01,2013-03-28 22:48:00,
2013-03-28 15:53:00,65.8,51.5,29.94,East,95,0.0,0.0,60,0.00,,---,0.00,VWS V14.01,2013-03-28 22:53:00,
2013-03-28 15:58:00,65.9,51.6,29.94,East,96,4.0,0.0,60,0.00,,---,0.00,VWS V14.01,2013-03-28 22:58:00,
2013-03-28 16:03:00,65.7,50.5,29.94,East,97,1.0,0.0,58,0.00,,---,0.00,VWS V14.01,2013-03-28 23:03:00,
2013-03-28 16:08:00,65.5,51.3,29.94,NNE,23,0.0,0.0,60,0.00,,---,0.00,VWS V14.01,2013-03-28 23:08:00,
2013-03-28 16:13:00,65.7,50.5,29.94,East,88,0.0,0.0,58,0.00,,---,0.00,VWS V14.01,2013-03-28 23:13:00,
2013-03-28 16:18:00,65.9,50.2,29.94,NNE,22,1.0,0.0,57,0.00,,---,0.00,VWS V14.01,2013-03-28 23:18:00,
2013-03-28 16:23:00,66.0,49.9,29.93,NE,34,0.0,0.0,56,0.00,,---,0.00,VWS V14.01,2013-03-28 23:23:00,
2013-03-28 16:28:00,66.1,50.9,29.93,ENE,57,0.0,0.0,58,0.00,,---,0.00,VWS V14.01,2013-03-28 23:28:00,
2013-03-28 16:34:00,66.1,50.9,29.93,ENE,76,0.0,0.0,58,0.00,,---,0.00,VWS V14.01,2013-03-28 23:34:00,
2013-03-28 16:39:00,65.8,49.7,29.94,East,93,0.0,0.0,56,0.00,,---,0.00,VWS V14.01,2013-03-28 23:39:00,
2013-03-28 16:44:00,65.7,50.1,29.94,East,94,2.0,0.0,57,0.00,,---,0.00,VWS V14.01,2013-03-28 23:44:00,
2013-03-28 16:49:00,65.8,50.2,29.93,East,101,1.0,0.0,57,0.00,,---,0.00,VWS V14.01,2013-03-28 23:49:00,
2013-03-28 16:54:00,65.8,49.7,29.93,East,87,1.0,0.0,56,0.00,,---,0.00,VWS V14.01,2013-03-28 23:54:00,
2013-03-28 16:59:00,66.0,49.9,29.93,NE,55,0.0,0.0,56,0.00,,---,0.00,VWS V14.01,2013-03-28 23:59:00,
2013-03-28 17:04:00,66.3,49.7,29.94,ESE,109,1.0,0.0,55,0.00,,---,0.00,VWS V14.01,2013-03-29 00:04:00,
2013-03-28 17:09:00,66.4,48.8,29.93,ENE,66,0.0,0.0,53,0.00,,---,0.00,VWS V14.01,2013-03-29 00:09:00,
2013-03-28 17:14:00,66.3,49.2,29.93,East,84,1.0,0.0,54,0.00,,---,0.00,VWS V14.01,2013-03-29 00:14:00,
2013-03-28 17:19:00,66.3,49.7,29.93,NE,47,0.0,0.0,55,0.00,,---,0.00,VWS V14.01,2013-03-29 00:19:00,
2013-03-28 17:24:00,66.2,49.1,29.93,NE,55,0.0,0.0,54,0.00,,---,0.00,VWS V14.01,2013-03-29 00:24:00,
2013-03-28 17:29:00,66.3,48.7,29.93,NE,44,1.0,0.0,53,0.00,,---,0.00,VWS V14.01,2013-03-29 00:29:00,
2013-03-28 17:34:00,66.4,48.8,29.94,NE,55,2.0,0.0,53,0.00,,---,0.00,VWS V14.01,2013-03-29 00:34:00,
2013-03-28 17:39:00,66.5,48.9,29.94,NE,45,1.0,0.0,53,0.00,,---,0.00,VWS V14.01,2013-03-29 00:39:00,
2013-03-28 17:44:00,66.7,49.5,29.94,NNE,21,2.0,0.0,54,0.00,,---,0.00,VWS V14.01,2013-03-29 00:44:00,
2013-03-28 17:50:00,66.5,48.9,29.93,ENE,59,0.0,0.0,53,0.00,,---,0.00,VWS V14.01,2013-03-29 00:50:00,
2013-03-28 17:55:00,66.3,48.7,29.93,ENE,61,1.0,0.0,53,0.00,,---,0.00,VWS V14.01,2013-03-29 00:55:00,
2013-03-28 18:00:00,66.3,48.7,29.93,NE,55,0.0,0.0,53,0.00,,---,0.00,VWS V14.01,2013-03-29 01:00:00,
2013-03-28 18:05:00,66.3,49.2,29.93,NE,39,0.0,0.0,54,0.00,,---,0.00,VWS V14.01,2013-03-29 01:05:00,
2013-03-28 18:10:00,66.1,49.0,29.94,NNE,18,1.0,0.0,54,0.00,,---,0.00,VWS V14.01,2013-03-29 01:10:00,
2013-03-28 18:15:00,66.0,50.3,29.94,NNE,24,0.0,0.0,57,0.00,,---,0.00,VWS V14.01,2013-03-29 01:15:00,
2013-03-28 18:20:00,65.9,49.3,29.93,NE,40,0.0,0.0,55,0.00,,---,0.00,VWS V14.01,2013-03-29 01:20:00,
2013-03-28 18:25:00,65.9,50.2,29.94,NE,44,0.0,0.0,57,0.00,,---,0.00,VWS V14.01,2013-03-29 01:25:00,
2013-03-28 18:30:00,65.8,50.6,29.94,NNE,21,1.0,0.0,58,0.00,,---,0.00,VWS V14.01,2013-03-29 01:30:00,
2013-03-28 18:35:00,65.7,51.0,29.94,NNE,24,0.0,0.0,59,0.00,,---,0.00,VWS V14.01,2013-03-29 01:35:00,
2013-03-28 18:40:00,65.5,50.8,29.94,NE,48,0.0,0.0,59,0.00,,---,0.00,VWS V14.01,2013-03-29 01:40:00,
2013-03-28 18:45:00,65.2,50.5,29.94,NNE,28,0.0,0.0,59,0.00,,---,0.00,VWS V14.01,2013-03-29 01:45:00,
2013-03-28 18:50:00,65.0,50.8,29.94,NE,49,0.0,0.0,60,0.00,,---,0.00,VWS V14.01,2013-03-29 01:50:00,
2013-03-28 18:55:00,64.7,51.0,29.94,NE,54,1.0,0.0,61,0.00,,---,0.00,VWS V14.01,2013-03-29 01:55:00,
2013-03-28 19:01:00,64.3,51.0,29.94,NE,34,1.0,0.0,62,0.00,,---,0.00,VWS V14.01,2013-03-29 02:01:00,
2013-03-28 19:06:00,64.1,51.7,29.94,ENE,59,0.0,0.0,64,0.00,,---,0.00,VWS V14.01,2013-03-29 02:06:00,
2013-03-28 19:11:00,63.9,51.5,29.94,NE,56,0.0,0.0,64,0.00,,---,0.00,VWS V14.01,2013-03-29 02:11:00,
2013-03-28 19:16:00,63.6,51.6,29.94,NE,56,0.0,0.0,65,0.00,,---,0.00,VWS V14.01,2013-03-29 02:16:00,
2013-03-28 19:21:00,63.4,51.9,29.94,NE,56,0.0,0.0,66,0.00,,---,0.00,VWS V14.01,2013-03-29 02:21:00,
2013-03-28 19:26:00,63.1,51.6,29.94,ENE,61,0.0,0.0,66,0.00,,---,0.00,VWS V14.01,2013-03-29 02:26:00,
2013-03-28 19:31:00,62.9,51.8,29.94,ENE,72,0.0,0.0,67,0.00,,---,0.00,VWS V14.01,2013-03-29 02:31:00,
2013-03-28 19:36:00,62.5,52.2,29.94,NE,53,1.0,0.0,69,0.00,,---,0.00,VWS V14.01,2013-03-29 02:36:00,
2013-03-28 19:41:00,62.0,52.1,29.94,NE,53,0.0,0.0,70,0.00,,---,0.00,VWS V14.01,2013-03-29 02:41:00,
2013-03-28 19:46:00,61.4,51.9,29.95,NE,53,0.0,0.0,71,0.00,,---,0.00,VWS V14.01,2013-03-29 02:46:00,
2013-03-28 19:52:00,61.0,51.9,29.95,NE,53,0.0,0.0,72,0.00,,---,0.00,VWS V14.01,2013-03-29 02:52:00,
2013-03-28 19:57:00,60.8,52.1,29.95,NE,53,0.0,0.0,73,0.00,,---,0.00,VWS V14.01,2013-03-29 02:57:00,
2013-03-28 20:02:00,60.5,52.2,29.95,NE,47,0.0,0.0,74,0.00,,---,0.00,VWS V14.01,2013-03-29 03:02:00,
2013-03-28 20:07:00,60.4,52.1,29.95,NE,46,0.0,0.0,74,0.00,,---,0.00,VWS V14.01,2013-03-29 03:07:00,
2013-03-28 20:12:00,60.2,52.3,29.95,NE,46,0.0,0.0,75,0.00,,---,0.00,VWS V14.01,2013-03-29 03:12:00,
2013-03-28 20:17:00,59.9,52.3,29.96,NE,46,0.0,0.0,76,0.00,,---,0.00,VWS V14.01,2013-03-29 03:17:00,
2013-03-28 20:22:00,59.8,52.2,29.96,NE,46,0.0,0.0,76,0.00,,---,0.00,VWS V14.01,2013-03-29 03:22:00,
2013-03-28 20:27:00,59.6,52.0,29.96,NE,47,0.0,0.0,76,0.00,,---,0.00,VWS V14.01,2013-03-29 03:27:00,
2013-03-28 20:32:00,59.2,52.0,29.96,NE,47,0.0,0.0,77,0.00,,---,0.00,VWS V14.01,2013-03-29 03:32:00,
2013-03-28 20:37:00,58.9,52.1,29.96,NE,46,0.0,0.0,78,0.00,,---,0.00,VWS V14.01,2013-03-29 03:37:00,
2013-03-28 20:42:00,58.5,52.0,29.96,NE,46,0.0,0.0,79,0.00,,---,0.00,VWS V14.01,2013-03-29 03:42:00,
2013-03-28 20:47:00,58.2,51.7,29.96,NE,46,0.0,0.0,79,0.00,,---,0.00,VWS V14.01,2013-03-29 03:47:00,
2013-03-28 20:52:00,58.0,51.9,29.96,NE,47,0.0,0.0,80,0.00,,---,0.00,VWS V14.01,2013-03-29 03:52:00,
2013-03-28 20:57:00,57.8,52.0,29.96,East,84,0.0,0.0,81,0.00,,---,0.00,VWS V14.01,2013-03-29 03:57:00,
2013-03-28 21:00:00,57.7,51.9,29.97,East,84,0.0,0.0,81,0.00,,---,0.00,VWS V14.01,2013-03-29 04:00:00,
2013-03-28 21:05:00,57.6,51.8,29.97,East,84,0.0,0.0,81,0.00,,---,0.00,VWS V14.01,2013-03-29 04:05:00,
2013-03-28 21:10:00,57.5,51.7,29.96,East,84,0.0,0.0,81,0.00,,---,0.00,VWS V14.01,2013-03-29 04:10:00,
2013-03-28 21:15:00,57.3,51.5,29.97,East,84,0.0,0.0,81,0.00,,---,0.00,VWS V14.01,2013-03-29 04:15:00,
2013-03-28 21:20:00,57.0,51.6,29.97,East,84,0.0,0.0,82,0.00,,---,0.00,VWS V14.01,2013-03-29 04:20:00,
2013-03-28 21:25:00,56.8,51.4,29.97,East,84,0.0,0.0,82,0.00,,---,0.00,VWS V14.01,2013-03-29 04:25:00,
2013-03-28 21:30:00,56.6,51.5,29.97,East,84,0.0,0.0,83,0.00,,---,0.00,VWS V14.01,2013-03-29 04:30:00,
2013-03-28 21:36:00,56.2,51.1,29.97,East,84,0.0,0.0,83,0.00,,---,0.00,VWS V14.01,2013-03-29 04:36:00,
2013-03-28 21:41:00,56.0,51.2,29.97,East,85,0.0,0.0,84,0.00,,---,0.00,VWS V14.01,2013-03-29 04:41:00,
2013-03-28 21:46:00,55.7,50.6,29.97,East,84,0.0,0.0,83,0.00,,---,0.00,VWS V14.01,2013-03-29 04:46:00,
2013-03-28 21:51:00,55.4,50.3,29.97,East,84,0.0,0.0,83,0.00,,---,0.00,VWS V14.01,2013-03-29 04:51:00,
2013-03-28 21:56:00,55.2,49.8,29.97,East,84,0.0,0.0,82,0.00,,---,0.00,VWS V14.01,2013-03-29 04:56:00,
2013-03-28 22:01:00,55.0,49.3,29.97,East,84,0.0,0.0,81,0.00,,---,0.00,VWS V14.01,2013-03-29 05:01:00,
2013-03-28 22:07:00,54.8,49.1,29.97,East,84,0.0,0.0,81,0.00,,---,0.00,VWS V14.01,2013-03-29 05:07:00,
2013-03-28 22:12:00,54.6,48.9,29.98,East,84,0.0,0.0,81,0.00,,---,0.00,VWS V14.01,2013-03-29 05:12:00,
2013-03-28 22:17:00,54.5,48.8,29.98,ENE,57,0.0,0.0,81,0.00,,---,0.00,VWS V14.01,2013-03-29 05:17:00,
2013-03-28 22:22:00,54.4,48.7,29.98,ENE,65,0.0,0.0,81,0.00,,---,0.00,VWS V14.01,2013-03-29 05:22:00,
2013-03-28 22:27:00,54.4,48.7,29.98,ENE,65,0.0,0.0,81,0.00,,---,0.00,VWS V14.01,2013-03-29 05:27:00,
2013-03-28 22:32:00,54.2,48.5,29.97,ENE,65,0.0,0.0,81,0.00,,---,0.00,VWS V14.01,2013-03-29 05:32:00,
2013-03-28 22:37:00,54.0,48.3,29.98,ENE,65,0.0,0.0,81,0.00,,---,0.00,VWS V14.01,2013-03-29 05:37:00,
2013-03-28 22:42:00,53.9,48.5,29.98,ENE,65,0.0,0.0,82,0.00,,---,0.00,VWS V14.01,2013-03-29 05:42:00,
2013-03-28 22:48:00,53.6,48.2,29.98,ENE,65,0.0,0.0,82,0.00,,---,0.00,VWS V14.01,2013-03-29 05:48:00,
2013-03-28 22:53:00,53.4,48.0,29.98,ENE,65,0.0,0.0,82,0.00,,---,0.00,VWS V14.01,2013-03-29 05:53:00,
2013-03-28 22:58:00,53.2,47.9,29.98,ENE,65,0.0,0.0,82,0.00,,---,0.00,VWS V14.01,2013-03-29 05:58:00,
2013-03-28 23:03:00,53.1,47.8,29.98,ENE,65,0.0,0.0,82,0.00,,---,0.00,VWS V14.01,2013-03-29 06:03:00,
2013-03-28 23:08:00,53.0,47.7,29.98,ENE,65,0.0,0.0,82,0.00,,---,0.00,VWS V14.01,2013-03-29 06:08:00,
2013-03-28 23:13:00,52.9,47.6,29.98,ENE,65,0.0,0.0,82,0.00,,---,0.00,VWS V14.01,2013-03-29 06:13:00,
2013-03-28 23:18:00,52.9,47.6,29.98,ENE,65,0.0,0.0,82,0.00,,---,0.00,VWS V14.01,2013-03-29 06:18:00,
2013-03-28 23:23:00,52.9,47.6,29.98,ENE,65,0.0,0.0,82,0.00,,---,0.00,VWS V14.01,2013-03-29 06:23:00,
2013-03-28 23:28:00,52.9,47.6,29.98,ENE,65,0.0,0.0,82,0.00,,---,0.00,VWS V14.01,2013-03-29 06:28:00,
2013-03-28 23:33:00,52.9,47.6,29.98,ENE,65,0.0,0.0,82,0.00,,---,0.00,VWS V14.01,2013-03-29 06:33:00,
2013-03-28 23:38:00,52.8,47.5,29.98,ENE,66,0.0,0.0,82,0.00,,---,0.00,VWS V14.01,2013-03-29 06:38:00,
2013-03-28 23:43:00,52.8,47.5,29.98,ENE,65,0.0,0.0,82,0.00,,---,0.00,VWS V14.01,2013-03-29 06:43:00,
2013-03-28 23:48:00,52.7,47.4,29.97,East,84,0.0,0.0,82,0.00,,---,0.00,VWS V14.01,2013-03-29 06:48:00,
2013-03-28 23:53:00,52.5,47.2,29.97,East,97,1.0,0.0,82,0.00,,---,0.00,VWS V14.01,2013-03-29 06:53:00,
2013-03-28 23:58:00,52.5,47.2,29.97,East,92,0.0,0.0,82,0.00,,---,0.00,VWS V14.01,2013-03-29 06:58:00,